Notices

What's New in latest Release from April 7th, 2021:

- Updated Glossary, including Speed of Maximum Gust, and Total Hourly Precipitation

- Updated national and regional climate services offices contacts and prices information

- Addition of station inventory lists for 1981-2010, 1971-2000, and 1961-1990 Normals.

If you haven't already, please take our survey and provide feedback about our website: https://eccc.sondage-survey.ca/f/LanguageSelection.aspx?s=442ca660-fcf1-47c0-95a9-59707d6fd709

Hourly Data Report for March 07, 2018

MIRAMICHI RCS
NEW BRUNSWICK

47°00'34.000" N
65°27'54.000" W
33.00 m
8100989
71744
ACQ

Download Data

Hourly Data (March 2018)
Hourly Data Report for March 7, 2018
TIME
LST
Temp Definition
°C
Dew Point Definition
°C
Rel Hum Definition
%
Precip. Amount Definition
mm

Wind Dir Definition
10's deg

Wind Spd Definition
km/h
Visibility Definition
km
Stn Press Definition
kPa
Hmdx Definition


Wind Chill Definition


Weather Definition


00:00 -1.2 -5.6 72 0.0 4 22   101.75   -7 LegendNANA
01:00 -1.3 -5.5 73 0.0 5 22   101.76   -7 LegendNANA
02:00 -1.4 -5.2 75 0.0 4 20   101.77   -7 LegendNANA
03:00 -1.5 -5.0 77 0.0 4 22   101.73   -7 LegendNANA
04:00 -1.4 -5.3 75 0.0 5 26   101.69   -8 LegendNANA
05:00 -1.4 -5.3 75 0.0 5 23   101.70   -7 LegendNANA
06:00 -1.4 -5.3 75 0.0 5 24   101.71   -8 LegendNANA
07:00 -1.5 -5.4 75 0.0 6 25   101.74   -8 LegendNANA
08:00 -1.4 -5.4 74 0.0 5 24   101.80   -8 LegendNANA
09:00 -1.3 -5.4 74 0.0 6 25   101.83   -8 LegendNANA
10:00 -1.0 -5.2 74 0.0 6 19   101.92   -6 LegendNANA
11:00 -0.9 -5.0 74 0.0 6 30   101.80   -8 LegendNANA
12:00 -1.0 -4.4 77 0.0 6 30   101.84   -8 LegendNANA
13:00 -1.1 -3.5 84 0.0 6 25   101.71   -7 LegendNANA
14:00 -1.3 -3.5 85 0.0 6 28   101.74   -8 LegendNANA
15:00 -1.4 -3.5 85 0.0 6 22   101.78   -7 LegendNANA
16:00 -1.7 -3.5 88 0.0 5 25   101.75   -8 LegendNANA
17:00 -1.8 -3.4 89 0.0 6 23   101.75   -8 LegendNANA
18:00 -2.1 -3.6 89 0.0 5 28   101.71   -9 LegendNANA
19:00 -2.3 -3.8 90 0.0 6 24   101.73   -9 LegendNANA
20:00 -2.3 -3.9 89 0.0 6 25   101.72   -9 LegendNANA
21:00 -2.2 -4.6 83 0.0 6 26   101.65   -9 LegendNANA
22:00 -2.1 -4.8 81 0.0 6 23   101.65   -8 LegendNANA
23:00 -2.2 -4.7 83 0.0 6 23   101.58   -8 LegendNANA

Notes on Data Quality.

Legend

  • E = Estimated
  • M = Missing
  • NA = Not Available*
  • [empty] = Indicates an unobserved value
Date modified: